Wind_Speed
3 4 5 7 5 5 9 4 9 0 7 7 4 6 13 9 18 16 27 30 32 37 38 33 31 28 24 22 19 17 21 22 20 18 16 17 12 10 9 9 8 5 7 8
5 4 8 5 5 1 2 7 7 10 8 3 5 4 6 3 2 10 22 27 29 30 33 34 34 31 28 26 22 20 15 20 25 18 17 17 15 11 9 7 6 4 6 6
5 6 4 4 1 2 3 2 6 3 11 1 7 2 3 5 7 8 14 30 31 35 37 38 37 34 30 28 26 22 17 24 21 19 16 17 16 14 15 9 7 4 5 6
4 6 5 3 5 5 1 10 4 11 4 3 3 5 6 6 10 11 17 23 32 35 36 38 38 35 34 29 23 25 21 23 25 22 20 18 17 16 15 12 7 7 6 5
6 3 4 4 7 5 1 6 5 7 3 2 3 2 3 5 11 10 13 27 32 37 41 40 40 34 33 28 25 26 24 22 22 20 23 19 17 13 15 12 12 10 9 6
8 12 5 8 8 16 14 8 7 5 3 2 3 2 4 5 15 9 14 19 29 37 40 41 40 37 31 28 25 26 25 22 21 23 25 25 19 16 15 15 14 12 11 10
5 4 4 7 10 5 12 6 3 4 2 4 4 2 8 7 9 17 20 25 29 33 38 43 41 38 33 29 26 24 25 23 21 25 26 26 23 18 18 15 15 15 13 13
1 5 3 5 14 13 8 7 5 1 3 1 5 5 4 6 12 20 30 36 35 32 37 40 42 38 33 27 25 24 25 23 21 27 28 27 24 20 20 18 17 16 17 14
2 4 4 4 6 9 4 4 10 2 3 2 3 6 5 6 5 13 26 32 39 42 39 41 41 38 34 31 28 26 23 23 23 24 27 27 24 24 21 20 17 17 15 16
4 2 2 3 6 2 9 8 8 1 3 3 2 3 4 5 4 4 8 25 37 44 44 41 42 38 32 30 28 27 24 22 21 21 26 25 23 21 22 21 19 19 16 16
3 3 6 3 3 8 1 1 6 6 3 4 4 6 7 3 7 6 4 11 20 27 34 46 44 41 37 29 26 25 28 25 23 21 21 23 24 23 21 22 21 18 18 18
1 4 2 3 5 2 5 3 5 5 4 2 3 4 6 4 10 14 7 13 21 27 30 36 42 39 38 35 31 28 27 27 25 20 19 21 21 21 20 21 19 19 18 19
3 3 3 7 6 7 7 5 3 5 3 4 5 4 2 3 7 5 2 9 16 25 25 29 34 40 38 32 32 30 29 24 27 24 20 20 21 21 20 19 18 18 17 18
5 2 5 5 4 3 2 5 1 5 4 3 4 2 2 5 5 7 12 7 7 19 25 27 31 37 39 33 33 33 32 31 26 25 22 19 20 21 18 17 17 16 16 18
4 3 5 1 5 1 7 6 6 4 2 3 5 4 5 6 6 14 12 11 3 10 13 20 29 33 34 33 31 31 34 32 28 25 24 20 22 21 19 17 17 17 16 17
4 1 1 4 9 11 11 11 10 6 7 7 5 6 2 7 16 19 15 15 20 16 10 5 15 19 20 23 27 28 30 30 27 30 30 26 24 25 23 20 17 17 18 16
3 2 3 1 2 7 8 6 7 4 6 3 5 3 2 6 13 12 11 12 13 16 14 12 9 6 7 14 19 26 25 21 21 24 27 28 26 23 24 23 20 19 20 20
3 3 2 1 3 2 3 2 1 10 6 8 7 3 6 9 11 13 12 12 11 8 12 9 8 9 10 8 11 20 27 24 18 14 16 23 24 14 20 16 10 17 20 19
3 4 3 3 3 0 2 4 3 1 1 1 4 6 3 9 8 13 12 12 13 7 8 9 5 2 6 6 12 15 20 18 22 12 17 22 16 20 19 16 14 16 20 25
6 7 4 2 3 3 5 5 11 3 3 6 3 6 8 2 2 0 5 8 9 10 5 2 4 3 4 8 8 10 10 12 13 13 18 20 24 12 19 25 27 28 28 30
4 4 4 2 3 4 4 8 5 3 6 3 8 7 5 2 1 9 5 8 9 9 9 8 6 8 12 12 16 16 12 11 11 10 14 21 16 13 13 14 14 13 14 14
3 4 1 3 4 4 4 3 3 3 2 11 12 6 3 8 13 9 4 5 7 9 9 9 10 11 11 9 7 8 9 10 10 11 11 11 12 12 12 9 8 6 4 9
1 5 4 5 5 5 4 1 6 8 8 13 13 10 7 7 7 6 8 7 8 9 9 9 10 11 11 10 7 6 8 9 9 9 10 10 8 8 7 5 7 6 5 6
2 3 4 3 4 5 4 4 6 7 5 15 16 12 9 7 7 5 4 8 9 10 9 9 9 9 9 6 4 4 6 8 9 9 10 11 12 9 9 8 6 4 5 4
4 6 5 2 4 5 10 11 3 1 8 16 16 14 10 8 7 5 7 7 9 11 11 11 9 7 8 7 4 3 3 4 4 5 6 7 8 7 8 9 10 7 6 4
7 7 5 6 14 10 5 9 12 7 9 15 16 13 11 8 6 7 9 9 8 10 11 10 10 10 11 11 10 9 8 7 4 4 5 4 2 3 4 4 6 6 6 7
Wind_Direction
142 96 206 223 127 157 139 166 187 99 61 307 336 159 172 163 152 165 171 173 181 189 189 190 187 183 183 177 171 169 187 186 187 193 200 196 210 187 160 138 137 147 177 143
27 218 226 141 139 193 236 241 172 130 197 208 41 231 311 95 29 166 184 181 181 180 187 192 189 187 185 181 176 171 180 190 191 196 190 195 190 184 177 171 156 136 143 178
160 232 108 136 170 230 292 208 187 136 158 49 135 56 296 94 270 228 192 185 180 184 186 191 191 192 189 186 186 181 175 179 184 189 197 199 196 209 205 213 202 181 169 176
244 259 220 165 222 172 187 241 121 138 135 171 248 184 215 190 206 210 176 175 183 185 193 192 194 194 197 192 190 190 184 183 194 204 201 204 209 214 206 206 211 206 201 198
248 271 191 170 208 160 271 32 95 113 107 109 211 138 228 157 201 202 193 183 190 191 194 195 196 197 198 200 195 194 192 194 204 206 208 207 206 206 202 199 206 220 214 199
237 249 193 208 133 155 115 89 44 46 85 352 154 110 256 198 218 181 184 178 183 191 193 196 198 198 199 200 200 199 199 198 207 214 211 210 209 212 212 218 224 215 217 215
313 232 217 149 87 82 119 121 28 8 21 235 86 87 244 199 208 186 179 184 194 193 194 197 196 200 199 202 205 206 206 207 211 211 212 211 218 219 219 233 217 218 222 226
247 344 205 160 150 168 194 145 130 134 211 270 41 239 246 228 261 228 185 184 193 200 198 201 200 201 202 205 207 210 213 215 220 211 213 219 225 225 228 224 219 224 230 229
182 281 293 108 139 147 192 120 122 305 263 96 215 276 289 221 328 156 167 172 186 198 197 199 205 204 205 207 207 213 218 220 223 222 220 223 228 229 231 227 225 225 229 225
241 282 305 264 111 341 167 166 112 311 296 255 275 272 247 300 79 1 198 189 191 194 197 200 199 202 202 207 206 212 215 222 225 227 224 225 229 233 234 231 234 227 223 213
153 128 295 11 1 170 106 178 56 124 187 179 150 255 349 335 135 111 128 193 203 198 196 200 202 202 202 198 206 216 215 219 223 231 227 229 230 235 236 240 242 237 227 221
151 153 107 203 301 262 91 123 129 120 203 241 160 260 335 76 102 116 160 208 217 213 207 206 206 205 205 211 218 216 215 222 222 225 225 227 232 229 236 238 240 246 242 232
329 25 38 352 3 3 53 316 90 108 80 190 137 253 67 103 89 83 169 171 192 207 209 210 216 212 210 214 215 217 214 225 218 220 225 225 227 228 231 234 233 243 239 234
108 37 113 158 199 285 5 334 337 133 111 175 212 244 63 29 57 32 20 360 211 190 199 206 214 219 220 218 219 230 229 217 220 219 229 229 229 227 234 236 228 235 238 235
75 69 90 4 82 262 41 29 30 97 207 152 181 105 11 12 359 1 358 358 20 208 204 208 213 219 215 214 224 231 222 222 215 229 223 229 230 230 229 228 234 239 249 245
7 90 216 79 120 85 53 19 30 40 69 54 77 70 38 51 65 43 50 71 64 74 112 120 204 211 210 222 224 222 217 216 212 215 228 233 237 231 232 231 232 241 245 250
57 87 47 123 4 81 57 338 43 47 43 122 78 264 19 45 38 25 36 64 71 82 97 100 102 114 235 241 232 222 218 213 221 223 228 229 235 239 236 234 239 254 247 250
111 74 74 271 86 50 228 259 271 88 43 88 96 63 74 87 79 65 54 49 55 71 80 78 96 103 61 -0 287 236 232 233 230 238 234 231 226 248 234 238 269 261 259 262
82 119 65 101 69 348 26 348 332 349 107 303 128 129 151 122 89 56 67 68 64 71 71 84 79 56 33 351 16 283 249 232 220 254 235 233 216 257 256 267 266 265 274 271
48 70 107 90 99 170 234 281 336 82 336 176 162 160 161 265 29 141 71 82 94 103 104 209 210 218 181 158 156 224 228 241 218 234 212 215 201 217 219 240 257 264 261 266
3 3 95 75 117 279 245 297 348 111 227 187 164 178 207 232 229 142 109 96 111 124 142 152 152 174 193 181 184 197 194 192 190 179 195 208 219 213 215 224 236 243 243 237
149 127 161 77 85 267 17 300 198 201 122 185 189 197 172 127 121 128 128 99 108 130 139 147 162 149 150 151 159 166 171 165 163 167 175 186 196 205 209 215 220 207 192 225
29 175 175 162 212 251 301 181 128 141 137 172 185 196 177 153 158 150 126 114 112 126 135 147 160 156 155 150 154 161 141 151 164 168 169 175 178 172 176 180 174 169 160 154
346 159 106 90 247 240 212 192 163 150 169 186 188 186 175 170 168 170 149 128 128 131 142 145 146 153 154 149 133 114 123 146 158 163 158 157 162 169 173 176 171 187 175 133
195 147 143 282 285 275 248 232 170 164 200 169 176 182 177 176 167 172 173 155 141 136 138 139 144 151 157 155 149 123 121 127 143 150 148 148 151 158 171 175 162 182 181 169
186 174 157 216 207 186 212 253 209 163 159 172 167 165 169 164 156 164 169 161 148 139 138 138 134 136 138 137 136 136 127 118 108 118 123 125 133 170 183 179 172 175 171 163
Height
1503 1511 1516 1506 1510 1512 1515 1522 1528 1525 1528 1528 1526 1524 1525 1527 1529 1532 1535 1538 1542 1544 1547 1553 1556 1560 1562 1564 1566 1568 1571 1574 1577 1580 1582 1585 1587 1590 1592 1594 1596 1597 1597 1599
1509 1514 1502 1503 1505 1507 1507 1513 1520 1528 1525 1524 1526 1527 1526 1526 1527 1527 1530 1536 1539 1544 1547 1552 1556 1560 1562 1563 1565 1567 1571 1573 1576 1580 1582 1585 1587 1591 1593 1594 1596 1597 1598 1599
1511 1504 1499 1503 1506 1507 1508 1511 1517 1515 1525 1527 1526 1533 1530 1529 1530 1530 1529 1532 1538 1541 1545 1550 1554 1559 1561 1563 1565 1567 1570 1573 1576 1579 1582 1584 1587 1589 1592 1594 1596 1598 1599 1601
1504 1498 1499 1503 1507 1508 1517 1501 1506 1516 1524 1535 1527 1540 1531 1530 1531 1529 1527 1529 1535 1539 1544 1547 1552 1556 1559 1562 1566 1569 1570 1573 1576 1579 1581 1584 1586 1589 1591 1594 1595 1598 1599 1601
1506 1498 1500 1503 1500 1502 1512 1506 1509 1517 1532 1532 1529 1535 1522 1522 1524 1522 1526 1526 1531 1536 1539 1544 1547 1551 1556 1562 1565 1569 1571 1573 1575 1577 1580 1583 1585 1588 1591 1593 1595 1597 1598 1599
1497 1490 1492 1493 1493 1496 1506 1517 1520 1526 1533 1543 1527 1532 1525 1524 1510 1517 1521 1524 1529 1533 1537 1542 1546 1551 1554 1559 1563 1567 1570 1572 1574 1576 1578 1581 1584 1587 1589 1591 1593 1595 1597 1599
1494 1487 1482 1484 1499 1503 1503 1520 1547 1548 1541 1544 1529 1535 1515 1501 1501 1501 1511 1520 1527 1532 1535 1539 1544 1549 1552 1556 1560 1564 1568 1571 1573 1575 1577 1580 1583 1584 1587 1589 1591 1592 1595 1597
1508 1507 1481 1478 1487 1504 1507 1509 1532 1547 1547 1532 1530 1536 1507 1496 1495 1496 1503 1509 1521 1530 1534 1538 1541 1545 1549 1553 1557 1562 1565 1569 1571 1573 1576 1579 1582 1584 1586 1588 1589 1591 1592 1594
1506 1500 1477 1474 1478 1488 1500 1514 1503 1530 1530 1539 1536 1514 1493 1490 1490 1488 1497 1506 1512 1518 1525 1530 1537 1542 1545 1549 1554 1558 1562 1565 1568 1571 1574 1577 1580 1581 1583 1585 1587 1589 1590 1591
1491 1502 1481 1478 1478 1486 1487 1492 1520 1542 1544 1538 1533 1518 1507 1495 1497 1498 1503 1501 1502 1508 1516 1524 1528 1537 1543 1546 1550 1555 1559 1562 1565 1568 1571 1574 1577 1580 1582 1583 1585 1586 1588 1589
1487 1498 1492 1482 1489 1491 1494 1497 1507 1513 1521 1530 1542 1528 1496 1495 1493 1499 1503 1506 1508 1511 1517 1518 1523 1529 1534 1542 1546 1550 1554 1558 1562 1566 1568 1571 1574 1577 1579 1580 1582 1583 1584 1586
1485 1498 1505 1493 1486 1484 1486 1496 1504 1523 1521 1525 1528 1521 1500 1499 1497 1498 1502 1503 1505 1507 1512 1520 1524 1528 1532 1536 1542 1545 1550 1555 1559 1563 1566 1568 1571 1574 1577 1578 1580 1581 1583 1583
1484 1500 1516 1507 1497 1489 1497 1495 1496 1511 1519 1527 1528 1522 1504 1501 1501 1503 1503 1501 1501 1503 1507 1514 1520 1525 1530 1533 1537 1542 1547 1552 1557 1560 1563 1566 1569 1572 1574 1575 1578 1579 1581 1581
1483 1502 1508 1524 1517 1512 1503 1498 1495 1502 1519 1520 1520 1511 1508 1508 1507 1508 1503 1502 1503 1502 1502 1507 1514 1520 1525 1530 1534 1538 1543 1547 1553 1557 1560 1562 1566 1569 1571 1574 1576 1577 1577 1579
1488 1504 1503 1505 1504 1506 1504 1503 1499 1503 1504 1507 1510 1512 1511 1512 1509 1507 1505 1502 1502 1504 1506 1509 1511 1514 1520 1527 1531 1534 1539 1543 1548 1553 1557 1560 1562 1565 1567 1569 1572 1574 1576 1577
1493 1506 1503 1510 1506 1502 1509 1506 1500 1500 1501 1508 1511 1515 1514 1513 1511 1510 1510 1508 1506 1506 1508 1509 1513 1516 1522 1527 1531 1532 1537 1541 1546 1549 1552 1555 1557 1560 1563 1565 1568 1570 1573 1576
1500 1506 1511 1513 1515 1506 1520 1518 1511 1509 1506 1507 1519 1518 1514 1515 1514 1515 1513 1512 1512 1511 1513 1513 1515 1517 1522 1525 1531 1534 1536 1539 1544 1546 1549 1550 1555 1556 1559 1561 1564 1567 1569 1571
1504 1509 1517 1518 1515 1533 1519 1516 1512 1512 1512 1510 1513 1513 1515 1517 1519 1519 1518 1516 1515 1515 1515 1514 1514 1515 1517 1525 1529 1531 1535 1537 1541 1542 1544 1547 1551 1552 1554 1556 1559 1561 1564 1566
1498 1511 1524 1526 1537 1526 1519 1515 1516 1514 1519 1513 1514 1514 1517 1519 1522 1520 1522 1522 1520 1518 1517 1517 1516 1516 1514 1518 1524 1529 1531 1536 1537 1539 1542 1545 1546 1549 1550 1553 1554 1556 1560 1562
1503 1505 1516 1530 1529 1536 1525 1514 1513 1510 1531 1515 1514 1517 1516 1520 1525 1526 1524 1524 1524 1523 1522 1521 1519 1518 1519 1521 1519 1528 1527 1523 1531 1535 1538 1540 1542 1546 1548 1550 1552 1555 1556 1556
1523 1523 1528 1533 1537 1530 1515 1513 1511 1526 1530 1513 1512 1515 1518 1521 1523 1523 1524 1524 1525 1525 1526 1526 1525 1523 1526 1527 1528 1531 1529 1531 1534 1534 1537 1540 1542 1545 1549 1552 1552 1551 1551 1552
1524 1531 1533 1537 1538 1534 1514 1513 1516 1515 1511 1512 1515 1515 1518 1520 1522 1525 1525 1525 1527 1526 1527 1528 1528 1528 1529 1528 1529 1531 1533 1535 1536 1538 1538 1540 1542 1545 1548 1550 1551 1551 1550 1550
1525 1523 1527 1528 1529 1517 1514 1513 1513 1514 1513 1515 1516 1518 1520 1520 1522 1525 1526 1526 1526 1528 1529 1531 1531 1530 1530 1530 1533 1535 1534 1536 1538 1541 1542 1542 1543 1545 1547 1547 1551 1552 1552 1551
1515 1514 1521 1523 1518 1515 1514 1515 1516 1516 1516 1516 1517 1519 1520 1521 1522 1524 1526 1528 1528 1527 1529 1531 1532 1533 1532 1533 1534 1536 1537 1539 1541 1543 1543 1545 1546 1548 1548 1549 1551 1553 1553 1553
1513 1513 1519 1521 1517 1516 1514 1514 1516 1516 1515 1516 1517 1518 1520 1521 1522 1523 1525 1527 1529 1530 1531 1532 1533 1534 1534 1534 1535 1536 1537 1539 1541 1542 1544 1545 1545 1547 1548 1549 1549 1553 1554 1553
1507 1510 1517 1518 1506 1508 1510 1511 1514 1516 1517 1519 1517 1520 1522 1523 1523 1523 1525 1527 1528 1529 1531 1534 1534 1537 1538 1538 1538 1538 1539 1540 1542 1543 1544 1545 1547 1549 1549 1549 1550 1553 1553 1555